Time,TemperatureF,DewpointF,PressureIn,WindDirection,WindDirectionDegrees,WindSpeedMPH,WindSpeedGustMPH,Humidity,HourlyPrecipIn,Conditions,Clouds,dailyrainin,SoftwareType,DateUTC
2013-01-26 00:02:00,32.6,30.5,30.12,SW,215,0.0,4.0,92,0.00,,,0.00,WeatherTracker,2013-01-26 08:02:00,
2013-01-26 00:07:00,32.6,30.5,30.12,SW,215,0.0,4.0,92,0.00,,,0.00,WeatherTracker,2013-01-26 08:07:00,
2013-01-26 00:12:00,32.3,30.0,30.12,SW,215,0.0,0.0,91,0.00,,,0.00,WeatherTracker,2013-01-26 08:12:00,
2013-01-26 00:17:00,32.2,30.1,30.12,SW,215,0.0,0.0,92,0.00,,,0.00,WeatherTracker,2013-01-26 08:17:00,
2013-01-26 00:22:00,32.3,30.2,30.12,SW,215,1.0,0.0,92,0.00,,,0.00,WeatherTracker,2013-01-26 08:22:00,
2013-01-26 00:28:00,32.5,30.4,30.12,SW,214,3.0,0.0,92,0.00,,,0.00,WeatherTracker,2013-01-26 08:28:00,
2013-01-26 00:33:00,32.6,30.5,30.11,SW,214,0.0,3.0,92,0.00,,,0.00,WeatherTracker,2013-01-26 08:33:00,
2013-01-26 00:38:00,32.4,30.3,30.11,SW,215,0.0,3.0,92,0.00,,,0.00,WeatherTracker,2013-01-26 08:38:00,
2013-01-26 00:43:00,32.3,30.2,30.11,SW,215,0.0,2.0,92,0.00,,,0.00,WeatherTracker,2013-01-26 08:43:00,
2013-01-26 00:48:00,32.2,30.1,30.11,SW,215,0.0,2.0,92,0.00,,,0.00,WeatherTracker,2013-01-26 08:48:00,
2013-01-26 00:53:00,31.7,29.6,30.11,SW,215,0.0,0.0,92,0.00,,,0.00,WeatherTracker,2013-01-26 08:53:00,
2013-01-26 00:58:00,31.3,29.3,30.11,SW,214,3.0,0.0,92,0.00,,,0.00,WeatherTracker,2013-01-26 08:58:00,
2013-01-26 01:03:00,31.0,29.0,30.11,SSW,205,2.0,5.0,92,0.00,,,0.00,WeatherTracker,2013-01-26 09:03:00,
2013-01-26 01:08:00,31.4,29.3,30.10,SSW,205,0.0,5.0,92,0.00,,,0.00,WeatherTracker,2013-01-26 09:08:00,
2013-01-26 01:13:00,31.5,29.4,30.10,ESE,119,7.0,7.0,92,0.00,,,0.00,WeatherTracker,2013-01-26 09:13:00,
2013-01-26 01:18:00,30.2,28.2,30.11,ESE,118,0.0,7.0,92,0.00,,,0.00,WeatherTracker,2013-01-26 09:18:00,
2013-01-26 01:23:00,30.3,28.3,30.11,ESE,118,4.0,7.0,92,0.00,,,0.00,WeatherTracker,2013-01-26 09:23:00,
2013-01-26 01:28:00,30.2,28.2,30.10,ESE,118,0.0,6.0,92,0.00,,,0.00,WeatherTracker,2013-01-26 09:28:00,
2013-01-26 01:33:00,30.0,28.0,30.11,ESE,118,1.0,4.0,92,0.00,,,0.00,WeatherTracker,2013-01-26 09:33:00,
2013-01-26 01:38:00,29.6,27.6,30.11,ESE,118,3.0,3.0,92,0.00,,,0.00,WeatherTracker,2013-01-26 09:38:00,
2013-01-26 01:43:00,30.8,28.8,30.10,ESE,118,0.0,4.0,92,0.00,,,0.00,WeatherTracker,2013-01-26 09:43:00,
2013-01-26 01:48:00,31.1,29.1,30.10,ESE,118,2.0,4.0,92,0.00,,,0.00,WeatherTracker,2013-01-26 09:48:00,
2013-01-26 01:53:00,31.1,29.1,30.10,ESE,118,0.0,4.0,92,0.00,,,0.00,WeatherTracker,2013-01-26 09:53:00,
2013-01-26 01:58:00,30.2,28.2,30.10,ESE,118,0.0,3.0,92,0.00,,,0.00,WeatherTracker,2013-01-26 09:58:00,
2013-01-26 02:03:00,30.0,28.0,30.10,ESE,118,2.0,3.0,92,0.00,,,0.00,WeatherTracker,2013-01-26 10:03:00,
2013-01-26 02:08:00,30.6,28.6,30.10,ESE,118,0.0,3.0,92,0.00,,,0.00,WeatherTracker,2013-01-26 10:08:00,
2013-01-26 02:13:00,30.8,29.0,30.10,ESE,118,2.0,3.0,93,0.00,,,0.00,WeatherTracker,2013-01-26 10:13:00,
2013-01-26 02:18:00,29.8,27.8,30.10,ESE,118,0.0,3.0,92,0.00,,,0.00,WeatherTracker,2013-01-26 10:18:00,
2013-01-26 02:23:00,30.3,28.3,30.10,East,95,4.0,4.0,92,0.00,,,0.00,WeatherTracker,2013-01-26 10:23:00,
2013-01-26 02:28:00,32.0,30.2,30.10,East,90,1.0,6.0,93,0.00,,,0.00,WeatherTracker,2013-01-26 10:28:00,
2013-01-26 02:33:00,30.8,29.0,30.10,ENE,72,3.0,6.0,93,0.00,,,0.00,WeatherTracker,2013-01-26 10:33:00,
2013-01-26 02:38:00,30.2,28.2,30.10,East,89,5.0,5.0,92,0.00,,,0.00,WeatherTracker,2013-01-26 10:38:00,
2013-01-26 02:43:00,29.4,27.4,30.09,East,92,3.0,5.0,92,0.00,,,0.00,WeatherTracker,2013-01-26 10:43:00,
2013-01-26 02:48:00,30.2,28.4,30.09,East,93,0.0,5.0,93,0.00,,,0.00,WeatherTracker,2013-01-26 10:48:00,
2013-01-26 02:53:00,30.1,28.3,30.09,South,190,1.0,5.0,93,0.00,,,0.00,WeatherTracker,2013-01-26 10:53:00,
2013-01-26 02:59:00,30.2,28.2,30.09,South,190,2.0,6.0,92,0.00,,,0.00,WeatherTracker,2013-01-26 10:59:00,
2013-01-26 03:04:00,29.7,27.7,30.09,NE,51,2.0,6.0,92,0.00,,,0.00,WeatherTracker,2013-01-26 11:04:00,
2013-01-26 03:09:00,29.3,27.3,30.09,NE,55,0.0,4.0,92,0.00,,,0.00,WeatherTracker,2013-01-26 11:09:00,
2013-01-26 03:14:00,29.7,27.7,30.09,NE,55,2.0,4.0,92,0.00,,,0.00,WeatherTracker,2013-01-26 11:14:00,
2013-01-26 03:19:00,29.6,27.8,30.08,SSW,195,0.0,4.0,93,0.00,,,0.00,WeatherTracker,2013-01-26 11:19:00,
2013-01-26 03:24:00,29.7,27.9,30.08,SSW,195,1.0,7.0,93,0.00,,,0.00,WeatherTracker,2013-01-26 11:24:00,
2013-01-26 03:29:00,29.9,27.9,30.08,SSW,195,1.0,7.0,92,0.00,,,0.00,WeatherTracker,2013-01-26 11:29:00,
2013-01-26 03:34:00,29.7,27.9,30.08,West,259,3.0,4.0,93,0.00,,,0.00,WeatherTracker,2013-01-26 11:34:00,
2013-01-26 03:39:00,29.5,27.7,30.08,West,267,3.0,7.0,93,0.00,,,0.00,WeatherTracker,2013-01-26 11:39:00,
2013-01-26 03:44:00,29.4,27.4,30.08,West,267,0.0,7.0,92,0.00,,,0.00,WeatherTracker,2013-01-26 11:44:00,
2013-01-26 03:49:00,29.4,27.4,30.07,West,267,1.0,6.0,92,0.00,,,0.00,WeatherTracker,2013-01-26 11:49:00,
2013-01-26 03:54:00,29.1,27.1,30.08,West,267,1.0,4.0,92,0.00,,,0.00,WeatherTracker,2013-01-26 11:54:00,
2013-01-26 03:59:00,29.0,27.2,30.07,West,264,1.0,4.0,93,0.00,,,0.00,WeatherTracker,2013-01-26 11:59:00,
2013-01-26 04:04:00,28.9,27.1,30.07,West,264,1.0,4.0,93,0.00,,,0.00,WeatherTracker,2013-01-26 12:04:00,
2013-01-26 04:09:00,28.6,26.6,30.07,West,264,1.0,4.0,92,0.00,,,0.00,WeatherTracker,2013-01-26 12:09:00,
2013-01-26 04:14:00,28.3,26.3,30.08,West,264,2.0,4.0,92,0.00,,,0.00,WeatherTracker,2013-01-26 12:14:00,
2013-01-26 04:19:00,28.2,26.2,30.08,WSW,257,2.0,4.0,92,0.00,,,0.00,WeatherTracker,2013-01-26 12:19:00,
2013-01-26 04:24:00,28.1,26.1,30.07,SSE,167,2.0,5.0,92,0.00,,,0.00,WeatherTracker,2013-01-26 12:24:00,
2013-01-26 04:29:00,28.7,26.7,30.07,SSW,194,4.0,5.0,92,0.00,,,0.00,WeatherTracker,2013-01-26 12:29:00,
2013-01-26 04:34:00,28.8,27.0,30.07,SW,215,2.0,4.0,93,0.00,,,0.00,WeatherTracker,2013-01-26 12:34:00,
2013-01-26 04:39:00,29.2,27.4,30.07,SW,215,0.0,4.0,93,0.00,,,0.00,WeatherTracker,2013-01-26 12:39:00,
2013-01-26 04:44:00,29.2,27.4,30.07,SW,216,3.0,4.0,93,0.00,,,0.00,WeatherTracker,2013-01-26 12:44:00,
2013-01-26 04:49:00,29.6,27.8,30.07,SW,216,2.0,3.0,93,0.00,,,0.00,WeatherTracker,2013-01-26 12:49:00,
2013-01-26 04:54:00,29.9,28.1,30.07,SW,215,3.0,3.0,93,0.00,,,0.00,WeatherTracker,2013-01-26 12:54:00,
2013-01-26 04:59:00,29.2,27.4,30.07,ENE,74,1.0,3.0,93,0.00,,,0.00,WeatherTracker,2013-01-26 12:59:00,
2013-01-26 05:04:00,28.6,26.6,30.07,ENE,74,2.0,5.0,92,0.00,,,0.00,WeatherTracker,2013-01-26 13:04:00,
2013-01-26 05:09:00,28.8,26.8,30.07,ENE,74,0.0,5.0,92,0.00,,,0.00,WeatherTracker,2013-01-26 13:09:00,
2013-01-26 05:14:00,28.4,26.4,30.07,ESE,115,0.0,3.0,92,0.00,,,0.00,WeatherTracker,2013-01-26 13:14:00,
2013-01-26 05:19:00,28.8,27.0,30.07,East,82,0.0,7.0,93,0.00,,,0.00,WeatherTracker,2013-01-26 13:19:00,
2013-01-26 05:24:00,28.5,26.7,30.07,East,82,2.0,7.0,93,0.00,,,0.00,WeatherTracker,2013-01-26 13:24:00,
2013-01-26 05:30:00,28.3,26.3,30.06,East,82,0.0,4.0,92,0.00,,,0.00,WeatherTracker,2013-01-26 13:30:00,
2013-01-26 05:35:00,28.3,26.3,30.06,South,176,1.0,5.0,92,0.00,,,0.00,WeatherTracker,2013-01-26 13:35:00,
2013-01-26 05:40:00,28.1,26.1,30.06,South,172,3.0,5.0,92,0.00,,,0.00,WeatherTracker,2013-01-26 13:40:00,
2013-01-26 05:45:00,28.1,26.1,30.06,South,173,2.0,4.0,92,0.00,,,0.00,WeatherTracker,2013-01-26 13:45:00,
2013-01-26 05:50:00,27.6,25.6,30.06,South,173,0.0,4.0,92,0.00,,,0.00,WeatherTracker,2013-01-26 13:50:00,
2013-01-26 05:55:00,28.2,26.4,30.05,ENE,70,3.0,9.0,93,0.00,,,0.00,WeatherTracker,2013-01-26 13:55:00,
2013-01-26 06:00:00,28.8,27.0,30.06,SE,134,4.0,9.0,93,0.00,,,0.00,WeatherTracker,2013-01-26 14:00:00,
2013-01-26 06:05:00,29.9,28.1,30.06,ESE,107,5.0,8.0,93,0.00,,,0.00,WeatherTracker,2013-01-26 14:05:00,
2013-01-26 06:10:00,29.2,27.4,30.05,NE,55,2.0,8.0,93,0.00,,,0.00,WeatherTracker,2013-01-26 14:10:00,
2013-01-26 06:15:00,29.2,27.4,30.05,ENE,57,3.0,6.0,93,0.00,,,0.00,WeatherTracker,2013-01-26 14:15:00,
2013-01-26 06:20:00,29.3,27.5,30.05,WNW,284,0.0,4.0,93,0.00,,,0.00,WeatherTracker,2013-01-26 14:20:00,
2013-01-26 06:25:00,30.1,28.3,30.05,SW,225,2.0,4.0,93,0.00,,,0.00,WeatherTracker,2013-01-26 14:25:00,
2013-01-26 06:30:00,30.0,28.2,30.05,South,181,6.0,6.0,93,0.00,,,0.00,WeatherTracker,2013-01-26 14:30:00,
2013-01-26 06:35:00,30.8,29.0,30.05,SSW,208,0.0,8.0,93,0.00,,,0.00,WeatherTracker,2013-01-26 14:35:00,
2013-01-26 06:40:00,31.1,29.3,30.05,South,178,0.0,8.0,93,0.00,,,0.00,WeatherTracker,2013-01-26 14:40:00,
2013-01-26 06:45:00,31.4,29.6,30.06,South,187,2.0,4.0,93,0.00,,,0.00,WeatherTracker,2013-01-26 14:45:00,
2013-01-26 06:50:00,31.3,29.5,30.05,ENE,68,3.0,5.0,93,0.00,,,0.00,WeatherTracker,2013-01-26 14:50:00,
2013-01-26 06:55:00,30.7,28.9,30.05,SSW,205,9.0,9.0,93,0.00,,,0.00,WeatherTracker,2013-01-26 14:55:00,
2013-01-26 07:00:00,30.7,28.9,30.05,East,88,2.0,10.0,93,0.00,,,0.00,WeatherTracker,2013-01-26 15:00:00,
2013-01-26 07:06:00,31.0,29.2,30.05,SW,216,0.0,10.0,93,0.00,,,0.00,WeatherTracker,2013-01-26 15:06:00,
2013-01-26 07:11:00,31.3,29.5,30.05,WSW,256,3.0,5.0,93,0.00,,,0.00,WeatherTracker,2013-01-26 15:11:00,
2013-01-26 07:16:00,30.3,28.5,30.05,WNW,300,1.0,5.0,93,0.00,,,0.00,WeatherTracker,2013-01-26 15:16:00,
2013-01-26 07:21:00,28.9,27.1,30.05,ENE,59,2.0,5.0,93,0.00,,,0.00,WeatherTracker,2013-01-26 15:21:00,
2013-01-26 07:26:00,27.7,25.9,30.05,NE,50,3.0,5.0,93,0.00,,,0.00,WeatherTracker,2013-01-26 15:26:00,
2013-01-26 07:31:00,27.5,25.7,30.05,NE,53,0.0,5.0,93,0.00,,,0.00,WeatherTracker,2013-01-26 15:31:00,
2013-01-26 07:36:00,27.5,25.7,30.05,NE,36,1.0,4.0,93,0.00,,,0.00,WeatherTracker,2013-01-26 15:36:00,
2013-01-26 07:41:00,28.3,26.5,30.05,ENE,74,6.0,11.0,93,0.00,,,0.00,WeatherTracker,2013-01-26 15:41:00,
2013-01-26 07:46:00,29.2,27.4,30.05,NNE,24,0.0,11.0,93,0.00,,,0.00,WeatherTracker,2013-01-26 15:46:00,
2013-01-26 07:51:00,29.8,28.0,30.05,NW,311,4.0,10.0,93,0.00,,,0.00,WeatherTracker,2013-01-26 15:51:00,
2013-01-26 07:56:00,31.6,29.8,30.04,NNW,347,0.0,10.0,93,0.00,,,0.00,WeatherTracker,2013-01-26 15:56:00,
2013-01-26 08:01:00,31.7,29.9,30.05,SE,137,0.0,10.0,93,0.00,,,0.00,WeatherTracker,2013-01-26 16:01:00,
2013-01-26 08:06:00,32.3,30.5,30.05,NE,42,5.0,10.0,93,0.00,,,0.00,WeatherTracker,2013-01-26 16:06:00,
2013-01-26 08:11:00,33.3,31.5,30.04,NE,51,0.0,6.0,93,0.00,,,0.00,WeatherTracker,2013-01-26 16:11:00,
2013-01-26 08:16:00,33.0,31.2,30.04,ESE,119,2.0,6.0,93,0.00,,,0.00,WeatherTracker,2013-01-26 16:16:00,
2013-01-26 08:21:00,33.4,31.6,30.04,ESE,118,0.0,6.0,93,0.01,,,0.01,WeatherTracker,2013-01-26 16:21:00,
2013-01-26 08:26:00,34.1,32.3,30.04,ESE,105,3.0,5.0,93,0.01,,,0.01,WeatherTracker,2013-01-26 16:26:00,
2013-01-26 08:31:00,34.0,32.2,30.04,ESE,109,2.0,4.0,93,0.01,,,0.01,WeatherTracker,2013-01-26 16:31:00,
2013-01-26 08:36:00,34.5,32.7,30.03,East,89,3.0,4.0,93,0.01,,,0.01,WeatherTracker,2013-01-26 16:36:00,
2013-01-26 08:41:00,35.4,33.6,30.03,NE,38,0.0,4.0,93,0.01,,,0.01,WeatherTracker,2013-01-26 16:41:00,
2013-01-26 08:46:00,35.9,33.8,30.04,South,172,2.0,4.0,92,0.01,,,0.01,WeatherTracker,2013-01-26 16:46:00,
2013-01-26 08:51:00,35.4,33.3,30.03,SE,138,1.0,5.0,92,0.01,,,0.01,WeatherTracker,2013-01-26 16:51:00,
2013-01-26 08:56:00,35.5,33.4,30.03,SE,137,2.0,5.0,92,0.01,,,0.01,WeatherTracker,2013-01-26 16:56:00,
2013-01-26 09:01:00,36.6,34.2,30.03,ENE,74,0.0,4.0,91,0.01,,,0.01,WeatherTracker,2013-01-26 17:01:00,
2013-01-26 09:06:00,37.8,35.4,30.03,ENE,74,0.0,4.0,91,0.01,,,0.01,WeatherTracker,2013-01-26 17:06:00,
2013-01-26 09:11:00,38.6,35.9,30.03,ENE,74,1.0,4.0,90,0.01,,,0.01,WeatherTracker,2013-01-26 17:11:00,
2013-01-26 09:16:00,39.1,36.1,30.02,ENE,74,2.0,3.0,89,0.01,,,0.01,WeatherTracker,2013-01-26 17:16:00,
2013-01-26 09:21:00,39.1,35.9,30.02,NE,55,2.0,5.0,88,0.00,,,0.01,WeatherTracker,2013-01-26 17:21:00,
2013-01-26 09:27:00,38.6,35.1,30.02,ENE,61,0.0,5.0,87,0.00,,,0.01,WeatherTracker,2013-01-26 17:27:00,
2013-01-26 09:32:00,38.7,35.2,30.02,ENE,62,1.0,5.0,87,0.00,,,0.01,WeatherTracker,2013-01-26 17:32:00,
2013-01-26 09:37:00,38.5,35.0,30.02,SSE,164,1.0,5.0,87,0.00,,,0.01,WeatherTracker,2013-01-26 17:37:00,
2013-01-26 09:42:00,38.6,35.1,30.01,SSE,165,3.0,5.0,87,0.00,,,0.01,WeatherTracker,2013-01-26 17:42:00,
2013-01-26 09:47:00,39.7,36.2,30.01,NNE,28,2.0,4.0,87,0.00,,,0.01,WeatherTracker,2013-01-26 17:47:00,
2013-01-26 09:52:00,40.4,36.3,30.02,NNE,29,0.0,4.0,85,0.00,,,0.01,WeatherTracker,2013-01-26 17:52:00,
2013-01-26 09:57:00,41.1,36.3,30.01,NW,306,1.0,3.0,83,0.00,,,0.01,WeatherTracker,2013-01-26 17:57:00,
2013-01-26 10:02:00,41.7,36.6,30.01,NW,306,0.0,3.0,82,0.00,,,0.01,WeatherTracker,2013-01-26 18:02:00,
2013-01-26 10:07:00,42.5,37.7,30.01,NW,306,0.0,3.0,83,0.00,,,0.01,WeatherTracker,2013-01-26 18:07:00,
2013-01-26 10:12:00,43.0,37.6,30.00,NW,306,0.0,3.0,81,0.00,,,0.01,WeatherTracker,2013-01-26 18:12:00,
2013-01-26 10:17:00,43.2,37.5,30.00,NW,306,2.0,3.0,80,0.00,,,0.01,WeatherTracker,2013-01-26 18:17:00,
2013-01-26 10:22:00,43.2,37.8,30.00,West,271,1.0,4.0,81,0.00,,,0.01,WeatherTracker,2013-01-26 18:22:00,
2013-01-26 10:27:00,42.9,36.8,29.99,NW,312,4.0,7.0,79,0.00,,,0.01,WeatherTracker,2013-01-26 18:27:00,
2013-01-26 10:32:00,43.3,37.6,29.99,NW,326,3.0,9.0,80,0.00,,,0.01,WeatherTracker,2013-01-26 18:32:00,
2013-01-26 10:37:00,43.9,38.1,29.99,West,268,2.0,9.0,80,0.00,,,0.01,WeatherTracker,2013-01-26 18:37:00,
2013-01-26 10:42:00,43.7,37.9,29.99,West,273,2.0,6.0,80,0.00,,,0.01,WeatherTracker,2013-01-26 18:42:00,
2013-01-26 10:47:00,43.5,37.7,29.98,NW,309,4.0,6.0,80,0.00,,,0.01,WeatherTracker,2013-01-26 18:47:00,
2013-01-26 10:53:00,43.8,38.0,29.98,WNW,302,0.0,6.0,80,0.00,,,0.01,WeatherTracker,2013-01-26 18:53:00,
2013-01-26 10:58:00,44.4,38.0,29.98,WNW,292,2.0,5.0,78,0.00,,,0.01,WeatherTracker,2013-01-26 18:58:00,
2013-01-26 11:03:00,45.0,38.9,29.98,WNW,290,3.0,4.0,79,0.00,,,0.01,WeatherTracker,2013-01-26 19:03:00,
2013-01-26 11:08:00,45.3,38.9,29.97,WSW,248,2.0,5.0,78,0.00,,,0.01,WeatherTracker,2013-01-26 19:08:00,
2013-01-26 11:13:00,45.7,38.2,29.96,WSW,254,4.0,5.0,75,0.00,,,0.01,WeatherTracker,2013-01-26 19:13:00,
2013-01-26 11:18:00,46.0,38.5,29.96,WNW,286,4.0,10.0,75,0.00,,,0.01,WeatherTracker,2013-01-26 19:18:00,
2013-01-26 11:23:00,46.4,38.6,29.96,WNW,287,3.0,10.0,74,0.00,,,0.01,WeatherTracker,2013-01-26 19:23:00,
2013-01-26 11:28:00,46.8,39.0,29.95,WSW,250,4.0,6.0,74,0.00,,,0.01,WeatherTracker,2013-01-26 19:28:00,
2013-01-26 11:33:00,47.1,39.6,29.94,NW,315,2.0,11.0,75,0.00,,,0.01,WeatherTracker,2013-01-26 19:33:00,
2013-01-26 11:38:00,48.3,38.2,29.94,WNW,290,3.0,11.0,68,0.00,,,0.01,WeatherTracker,2013-01-26 19:38:00,
2013-01-26 11:43:00,49.4,37.3,29.94,WNW,300,4.0,9.0,63,0.00,,,0.01,WeatherTracker,2013-01-26 19:43:00,
2013-01-26 11:48:00,50.0,38.7,29.93,NW,304,5.0,7.0,65,0.00,,,0.01,WeatherTracker,2013-01-26 19:48:00,
2013-01-26 11:53:00,50.1,38.0,29.93,WNW,294,5.0,10.0,63,0.00,,,0.01,WeatherTracker,2013-01-26 19:53:00,
2013-01-26 11:58:00,50.8,37.4,29.92,WNW,291,6.0,11.0,60,0.00,,,0.01,WeatherTracker,2013-01-26 19:58:00,
2013-01-26 12:03:00,51.1,37.3,29.92,WNW,283,7.0,11.0,59,0.00,,,0.01,WeatherTracker,2013-01-26 20:03:00,
2013-01-26 12:08:00,51.0,30.4,29.92,North,5,3.0,13.0,45,0.00,,,0.01,WeatherTracker,2013-01-26 20:08:00,
2013-01-26 12:13:00,51.6,29.8,29.91,NE,44,6.0,13.0,43,0.00,,,0.01,WeatherTracker,2013-01-26 20:13:00,
2013-01-26 12:18:00,51.9,29.5,29.91,NE,49,5.0,13.0,42,0.00,,,0.01,WeatherTracker,2013-01-26 20:18:00,
2013-01-26 12:23:00,52.3,28.7,29.89,NE,41,8.0,8.0,40,0.00,,,0.01,WeatherTracker,2013-01-26 20:23:00,
2013-01-26 12:28:00,52.6,30.2,29.90,NNE,27,9.0,9.0,42,0.00,,,0.01,WeatherTracker,2013-01-26 20:28:00,
2013-01-26 12:33:00,52.9,27.3,29.89,NE,51,11.0,13.0,37,0.00,,,0.01,WeatherTracker,2013-01-26 20:33:00,
2013-01-26 12:38:00,52.9,27.3,29.89,East,82,7.0,14.0,37,0.00,,,0.01,WeatherTracker,2013-01-26 20:38:00,
2013-01-26 12:43:00,53.2,30.1,29.89,ENE,63,4.0,14.0,41,0.00,,,0.01,WeatherTracker,2013-01-26 20:43:00,
2013-01-26 12:48:00,53.2,26.9,29.89,ENE,62,6.0,10.0,36,0.00,,,0.01,WeatherTracker,2013-01-26 20:48:00,
2013-01-26 12:53:00,53.2,28.3,29.89,ENE,64,3.0,9.0,38,0.00,,,0.01,WeatherTracker,2013-01-26 20:53:00,
2013-01-26 12:58:00,53.4,29.1,29.88,ENE,62,5.0,9.0,39,0.00,,,0.01,WeatherTracker,2013-01-26 20:58:00,
2013-01-26 13:03:00,53.5,27.9,29.88,ENE,75,5.0,6.0,37,0.00,,,0.01,WeatherTracker,2013-01-26 21:03:00,
2013-01-26 13:08:00,53.6,28.0,29.88,NNE,20,11.0,11.0,37,0.00,,,0.01,WeatherTracker,2013-01-26 21:08:00,
2013-01-26 13:13:00,53.2,26.3,29.88,North,360,7.0,14.0,35,0.00,,,0.01,WeatherTracker,2013-01-26 21:13:00,
2013-01-26 13:19:00,53.3,32.5,29.88,North,360,7.0,15.0,45,0.00,,,0.01,WeatherTracker,2013-01-26 21:19:00,
2013-01-26 13:24:00,53.4,25.0,29.87,West,263,16.0,16.0,33,0.00,,,0.01,WeatherTracker,2013-01-26 21:24:00,
2013-01-26 13:29:00,53.1,24.0,29.87,WNW,302,11.0,17.0,32,0.00,,,0.01,WeatherTracker,2013-01-26 21:29:00,
2013-01-26 13:34:00,53.1,28.2,29.87,SSW,200,20.0,20.0,38,0.00,,,0.01,WeatherTracker,2013-01-26 21:34:00,
2013-01-26 13:39:00,53.2,26.9,29.87,SSW,198,19.0,20.0,36,0.00,,,0.01,WeatherTracker,2013-01-26 21:39:00,
2013-01-26 13:44:00,52.6,24.3,29.86,SW,232,13.0,24.0,33,0.00,,,0.01,WeatherTracker,2013-01-26 21:44:00,
2013-01-26 13:49:00,52.3,26.1,29.86,WSW,257,21.0,30.0,36,0.00,,,0.01,WeatherTracker,2013-01-26 21:49:00,
2013-01-26 13:54:00,52.3,25.5,29.86,SW,223,6.0,32.0,35,0.00,,,0.01,WeatherTracker,2013-01-26 21:54:00,
2013-01-26 13:59:00,52.7,25.1,29.87,North,360,5.0,32.0,34,0.00,,,0.01,WeatherTracker,2013-01-26 21:59:00,
2013-01-26 14:04:00,52.4,26.9,29.87,NW,313,6.0,29.0,37,0.00,,,0.01,WeatherTracker,2013-01-26 22:04:00,
2013-01-26 14:09:00,51.7,29.4,29.87,North,360,0.0,21.0,42,0.00,,,0.01,WeatherTracker,2013-01-26 22:09:00,
2013-01-26 14:14:00,52.0,27.8,29.87,SW,223,9.0,19.0,39,0.00,,,0.01,WeatherTracker,2013-01-26 22:14:00,
2013-01-26 14:19:00,52.0,25.9,29.87,North,360,8.0,15.0,36,0.00,,,0.01,WeatherTracker,2013-01-26 22:19:00,
2013-01-26 14:24:00,51.7,26.9,29.86,North,360,5.0,19.0,38,0.00,,,0.01,WeatherTracker,2013-01-26 22:24:00,
2013-01-26 14:29:00,51.8,23.6,29.86,SSW,204,15.0,19.0,33,0.00,,,0.01,WeatherTracker,2013-01-26 22:29:00,
2013-01-26 14:34:00,51.7,23.5,29.86,South,190,2.0,26.0,33,0.00,,,0.01,WeatherTracker,2013-01-26 22:34:00,
2013-01-26 14:39:00,51.8,22.9,29.86,SSW,192,20.0,26.0,32,0.00,,,0.01,WeatherTracker,2013-01-26 22:39:00,
2013-01-26 14:45:00,51.6,23.4,29.86,SW,235,5.0,27.0,33,0.00,,,0.01,WeatherTracker,2013-01-26 22:45:00,
2013-01-26 14:50:00,51.5,24.1,29.86,SW,214,4.0,20.0,34,0.00,,,0.01,WeatherTracker,2013-01-26 22:50:00,
2013-01-26 14:55:00,51.7,24.2,29.86,SW,222,1.0,20.0,34,0.00,,,0.01,WeatherTracker,2013-01-26 22:55:00,
2013-01-26 15:00:00,51.5,23.4,29.85,WNW,298,9.0,22.0,33,0.00,,,0.01,WeatherTracker,2013-01-26 23:00:00,
2013-01-26 15:05:00,51.1,23.0,29.86,NW,309,2.0,38.0,33,0.00,,,0.01,WeatherTracker,2013-01-26 23:05:00,
2013-01-26 15:10:00,51.2,22.4,29.85,South,191,10.0,38.0,32,0.00,,,0.01,WeatherTracker,2013-01-26 23:10:00,
2013-01-26 15:15:00,51.0,22.9,29.85,SSW,206,13.0,20.0,33,0.00,,,0.01,WeatherTracker,2013-01-26 23:15:00,
2013-01-26 15:20:00,51.0,22.9,29.85,SSW,211,6.0,20.0,33,0.00,,,0.01,WeatherTracker,2013-01-26 23:20:00,
2013-01-26 15:25:00,51.0,23.6,29.85,SE,142,5.0,19.0,34,0.00,,,0.01,WeatherTracker,2013-01-26 23:25:00,
2013-01-26 15:30:00,50.9,24.9,29.85,WNW,291,15.0,16.0,36,0.00,,,0.01,WeatherTracker,2013-01-26 23:30:00,
2013-01-26 15:35:00,50.6,23.3,29.85,South,191,13.0,24.0,34,0.00,,,0.01,WeatherTracker,2013-01-26 23:35:00,
2013-01-26 15:40:00,50.5,22.5,29.85,WSW,250,0.0,24.0,33,0.00,,,0.01,WeatherTracker,2013-01-26 23:40:00,
2013-01-26 15:45:00,49.9,20.5,29.84,NW,314,11.0,19.0,31,0.00,,,0.01,WeatherTracker,2013-01-26 23:45:00,
2013-01-26 15:50:00,48.8,21.0,29.85,West,266,6.0,17.0,33,0.00,,,0.01,WeatherTracker,2013-01-26 23:50:00,
2013-01-26 15:55:00,48.2,21.8,29.85,SSW,194,8.0,17.0,35,0.00,,,0.01,WeatherTracker,2013-01-26 23:55:00,
2013-01-26 16:00:00,48.3,19.8,29.84,SSW,201,14.0,16.0,32,0.00,,,0.01,WeatherTracker,2013-01-27 00:00:00,
2013-01-26 16:05:00,48.2,20.5,29.84,WNW,299,7.0,16.0,33,0.00,,,0.01,WeatherTracker,2013-01-27 00:05:00,
2013-01-26 16:10:00,48.4,19.2,29.84,North,360,9.0,16.0,31,0.00,,,0.01,WeatherTracker,2013-01-27 00:10:00,
2013-01-26 16:16:00,48.2,18.2,29.85,West,268,4.0,18.0,30,0.00,,,0.01,WeatherTracker,2013-01-27 00:16:00,
2013-01-26 16:21:00,48.2,19.0,29.84,SW,221,5.0,18.0,31,0.00,,,0.01,WeatherTracker,2013-01-27 00:21:00,
2013-01-26 16:26:00,48.2,19.7,29.85,SSW,200,13.0,20.0,32,0.00,,,0.01,WeatherTracker,2013-01-27 00:26:00,
2013-01-26 16:31:00,48.4,18.4,29.85,ESE,107,7.0,29.0,30,0.00,,,0.01,WeatherTracker,2013-01-27 00:31:00,
2013-01-26 16:36:00,48.3,20.5,29.85,East,92,7.0,29.0,33,0.00,,,0.01,WeatherTracker,2013-01-27 00:36:00,
2013-01-26 16:41:00,47.9,18.7,29.85,East,89,5.0,13.0,31,0.00,,,0.01,WeatherTracker,2013-01-27 00:41:00,
2013-01-26 16:46:00,47.5,21.9,29.85,NE,49,3.0,11.0,36,0.00,,,0.01,WeatherTracker,2013-01-27 00:46:00,
2013-01-26 16:51:00,46.8,19.9,29.85,NE,46,1.0,9.0,34,0.00,,,0.01,WeatherTracker,2013-01-27 00:51:00,
2013-01-26 16:56:00,46.8,18.5,29.85,SSW,198,2.0,9.0,32,0.00,,,0.01,WeatherTracker,2013-01-27 00:56:00,
2013-01-26 17:01:00,47.3,19.0,29.85,NNE,28,18.0,18.0,32,0.00,,,0.01,WeatherTracker,2013-01-27 01:01:00,
2013-01-26 17:06:00,47.4,17.5,29.85,ENE,61,17.0,18.0,30,0.00,,,0.01,WeatherTracker,2013-01-27 01:06:00,
2013-01-26 17:11:00,47.8,17.1,29.85,NE,41,6.0,19.0,29,0.00,,,0.01,WeatherTracker,2013-01-27 01:11:00,
2013-01-26 17:16:00,46.0,22.4,29.86,NNE,14,11.0,19.0,39,0.00,,,0.01,WeatherTracker,2013-01-27 01:16:00,
2013-01-26 17:21:00,45.2,22.3,29.86,West,281,9.0,18.0,40,0.00,,,0.01,WeatherTracker,2013-01-27 01:21:00,
2013-01-26 17:26:00,45.2,20.5,29.86,WNW,290,10.0,17.0,37,0.00,,,0.01,WeatherTracker,2013-01-27 01:26:00,
2013-01-26 17:31:00,46.4,20.3,29.86,NNW,331,4.0,16.0,35,0.00,,,0.01,WeatherTracker,2013-01-27 01:31:00,
2013-01-26 17:36:00,44.3,23.2,29.86,West,280,9.0,16.0,43,0.00,,,0.01,WeatherTracker,2013-01-27 01:36:00,
2013-01-26 17:41:00,43.7,23.2,29.86,WNW,296,6.0,14.0,44,0.00,,,0.01,WeatherTracker,2013-01-27 01:41:00,
2013-01-26 17:46:00,44.0,22.4,29.86,WNW,296,5.0,10.0,42,0.00,,,0.01,WeatherTracker,2013-01-27 01:46:00,
2013-01-26 17:51:00,43.5,23.0,29.86,WNW,300,1.0,10.0,44,0.00,,,0.01,WeatherTracker,2013-01-27 01:51:00,
2013-01-26 17:56:00,43.7,23.2,29.86,North,355,5.0,12.0,44,0.00,,,0.01,WeatherTracker,2013-01-27 01:56:00,
2013-01-26 18:02:00,43.6,24.2,29.86,NW,315,3.0,14.0,46,0.00,,,0.01,WeatherTracker,2013-01-27 02:02:00,
2013-01-26 18:07:00,43.4,24.5,29.87,WNW,298,5.0,14.0,47,0.00,,,0.01,WeatherTracker,2013-01-27 02:07:00,
2013-01-26 18:12:00,42.8,25.0,29.86,NNE,28,11.0,12.0,49,0.00,,,0.01,WeatherTracker,2013-01-27 02:12:00,
2013-01-26 18:17:00,42.0,24.7,29.86,NNE,15,10.0,18.0,50,0.00,,,0.01,WeatherTracker,2013-01-27 02:17:00,
2013-01-26 18:22:00,41.4,25.1,29.86,NNE,32,11.0,18.0,52,0.00,,,0.01,WeatherTracker,2013-01-27 02:22:00,
2013-01-26 18:27:00,41.8,24.1,29.86,NNW,329,2.0,17.0,49,0.00,,,0.01,WeatherTracker,2013-01-27 02:27:00,
2013-01-26 18:32:00,42.0,21.7,29.86,NNW,333,0.0,17.0,44,0.00,,,0.01,WeatherTracker,2013-01-27 02:32:00,
2013-01-26 18:37:00,42.2,23.4,29.86,West,264,12.0,12.0,47,0.00,,,0.01,WeatherTracker,2013-01-27 02:37:00,
2013-01-26 18:42:00,40.9,23.7,29.86,WNW,288,11.0,13.0,50,0.00,,,0.01,WeatherTracker,2013-01-27 02:42:00,
2013-01-26 18:47:00,41.8,22.6,29.87,WNW,294,2.0,16.0,46,0.00,,,0.01,WeatherTracker,2013-01-27 02:47:00,
2013-01-26 18:52:00,41.9,23.2,29.86,NNE,30,5.0,16.0,47,0.00,,,0.01,WeatherTracker,2013-01-27 02:52:00,
2013-01-26 18:57:00,42.7,22.9,29.87,NE,48,7.0,10.0,45,0.00,,,0.01,WeatherTracker,2013-01-27 02:57:00,
2013-01-26 19:02:00,42.2,24.4,29.87,SSW,209,5.0,14.0,49,0.00,,,0.01,WeatherTracker,2013-01-27 03:02:00,
2013-01-26 19:07:00,41.8,23.1,29.86,West,277,3.0,14.0,47,0.00,,,0.01,WeatherTracker,2013-01-27 03:07:00,
2013-01-26 19:12:00,42.0,24.2,29.86,NNE,21,10.0,10.0,49,0.00,,,0.01,WeatherTracker,2013-01-27 03:12:00,
2013-01-26 19:17:00,41.7,24.0,29.86,NNE,23,4.0,12.0,49,0.00,,,0.01,WeatherTracker,2013-01-27 03:17:00,
2013-01-26 19:22:00,41.0,25.6,29.86,NE,46,5.0,17.0,54,0.00,,,0.01,WeatherTracker,2013-01-27 03:22:00,
2013-01-26 19:27:00,40.8,25.9,29.86,ENE,72,10.0,17.0,55,0.00,,,0.01,WeatherTracker,2013-01-27 03:27:00,
2013-01-26 19:32:00,39.9,25.5,29.85,NE,43,14.0,15.0,56,0.00,,,0.01,WeatherTracker,2013-01-27 03:32:00,
2013-01-26 19:37:00,40.8,22.1,29.85,NNE,28,13.0,20.0,47,0.00,,,0.01,WeatherTracker,2013-01-27 03:37:00,
2013-01-26 19:42:00,42.2,25.4,29.86,NNE,21,6.0,20.0,51,0.00,,,0.01,WeatherTracker,2013-01-27 03:42:00,
2013-01-26 19:47:00,41.0,24.3,29.85,NNW,336,2.0,19.0,51,0.00,,,0.01,WeatherTracker,2013-01-27 03:47:00,
2013-01-26 19:52:00,41.0,21.3,29.85,North,360,4.0,16.0,45,0.00,,,0.01,WeatherTracker,2013-01-27 03:52:00,
2013-01-26 19:57:00,41.4,22.7,29.85,NE,34,7.0,12.0,47,0.00,,,0.01,WeatherTracker,2013-01-27 03:57:00,
2013-01-26 20:02:00,41.8,23.6,29.85,North,349,2.0,12.0,48,0.00,,,0.01,WeatherTracker,2013-01-27 04:02:00,
2013-01-26 20:07:00,40.7,24.9,29.85,ENE,63,9.0,13.0,53,0.00,,,0.01,WeatherTracker,2013-01-27 04:07:00,
2013-01-26 20:12:00,41.1,25.3,29.86,SE,129,3.0,18.0,53,0.00,,,0.01,WeatherTracker,2013-01-27 04:12:00,
2013-01-26 20:17:00,40.4,25.5,29.86,WSW,252,2.0,18.0,55,0.00,,,0.01,WeatherTracker,2013-01-27 04:17:00,
2013-01-26 20:22:00,40.3,24.1,29.86,WNW,290,4.0,12.0,52,0.00,,,0.01,WeatherTracker,2013-01-27 04:22:00,
2013-01-26 20:27:00,40.2,24.9,29.86,NW,317,2.0,8.0,54,0.00,,,0.01,WeatherTracker,2013-01-27 04:27:00,
2013-01-26 20:32:00,40.2,24.9,29.86,NW,325,3.0,7.0,54,0.00,,,0.01,WeatherTracker,2013-01-27 04:32:00,
2013-01-26 20:37:00,40.0,24.3,29.86,WNW,302,1.0,6.0,53,0.00,,,0.01,WeatherTracker,2013-01-27 04:37:00,
2013-01-26 20:42:00,39.7,23.1,29.87,West,259,4.0,6.0,51,0.00,,,0.01,WeatherTracker,2013-01-27 04:42:00,
2013-01-26 20:47:00,40.5,21.9,29.87,SSW,196,8.0,8.0,47,0.00,,,0.01,WeatherTracker,2013-01-27 04:47:00,
2013-01-26 20:52:00,41.1,21.9,29.86,South,187,7.0,11.0,46,0.00,,,0.01,WeatherTracker,2013-01-27 04:52:00,
2013-01-26 20:58:00,41.5,21.8,29.87,NW,323,2.0,12.0,45,0.00,,,0.01,WeatherTracker,2013-01-27 04:58:00,
2013-01-26 21:00:00,41.5,21.8,29.87,ESE,109,13.0,13.0,45,0.00,,,0.01,WeatherTracker,2013-01-27 05:00:00,
2013-01-26 21:03:00,41.8,21.5,29.87,ESE,121,4.0,12.0,44,0.00,,,0.01,WeatherTracker,2013-01-27 05:03:00,
2013-01-26 21:08:00,41.9,21.6,29.87,NE,36,6.0,15.0,44,0.00,,,0.01,WeatherTracker,2013-01-27 05:08:00,
2013-01-26 21:13:00,41.5,21.8,29.87,North,360,4.0,15.0,45,0.00,,,0.01,WeatherTracker,2013-01-27 05:13:00,
2013-01-26 21:18:00,41.1,21.4,29.87,West,276,12.0,12.0,45,0.00,,,0.01,WeatherTracker,2013-01-27 05:18:00,
2013-01-26 21:23:00,41.6,21.3,29.87,East,98,4.0,13.0,44,0.00,,,0.01,WeatherTracker,2013-01-27 05:23:00,
2013-01-26 21:28:00,41.5,21.8,29.87,SW,236,1.0,15.0,45,0.00,,,0.01,WeatherTracker,2013-01-27 05:28:00,
2013-01-26 21:33:00,41.3,22.1,29.87,SE,138,3.0,15.0,46,0.00,,,0.01,WeatherTracker,2013-01-27 05:33:00,
2013-01-26 21:38:00,41.6,21.9,29.87,SSE,161,6.0,14.0,45,0.00,,,0.01,WeatherTracker,2013-01-27 05:38:00,
2013-01-26 21:43:00,41.7,21.9,29.87,ESE,110,5.0,9.0,45,0.00,,,0.01,WeatherTracker,2013-01-27 05:43:00,
2013-01-26 21:48:00,41.6,21.9,29.87,SSW,198,2.0,9.0,45,0.00,,,0.01,WeatherTracker,2013-01-27 05:48:00,
2013-01-26 21:53:00,41.3,22.1,29.87,WNW,283,5.0,7.0,46,0.00,,,0.01,WeatherTracker,2013-01-27 05:53:00,
2013-01-26 21:58:00,40.3,21.7,29.86,West,263,4.0,7.0,47,0.00,,,0.01,WeatherTracker,2013-01-27 05:58:00,
2013-01-26 22:03:00,39.8,21.7,29.87,West,275,5.0,10.0,48,0.00,,,0.01,WeatherTracker,2013-01-27 06:03:00,
2013-01-26 22:08:00,39.6,22.5,29.86,WNW,287,4.0,10.0,50,0.00,,,0.01,WeatherTracker,2013-01-27 06:08:00,
2013-01-26 22:13:00,38.8,21.8,29.87,WNW,284,1.0,7.0,50,0.00,,,0.01,WeatherTracker,2013-01-27 06:13:00,
2013-01-26 22:18:00,39.0,22.0,29.87,NW,318,3.0,6.0,50,0.00,,,0.01,WeatherTracker,2013-01-27 06:18:00,
2013-01-26 22:23:00,38.7,22.6,29.87,NW,306,4.0,5.0,52,0.00,,,0.01,WeatherTracker,2013-01-27 06:23:00,
2013-01-26 22:28:00,38.0,22.4,29.87,WNW,300,3.0,5.0,53,0.00,,,0.01,WeatherTracker,2013-01-27 06:28:00,
2013-01-26 22:33:00,37.3,23.1,29.87,NW,314,2.0,6.0,56,0.00,,,0.01,WeatherTracker,2013-01-27 06:33:00,
2013-01-26 22:38:00,37.0,22.4,29.87,North,349,8.0,8.0,55,0.00,,,0.01,WeatherTracker,2013-01-27 06:38:00,
2013-01-26 22:44:00,38.0,22.9,29.87,NNE,15,2.0,15.0,54,0.00,,,0.01,WeatherTracker,2013-01-27 06:44:00,
2013-01-26 22:49:00,37.8,22.7,29.88,South,170,4.0,15.0,54,0.00,,,0.01,WeatherTracker,2013-01-27 06:49:00,
2013-01-26 22:54:00,38.3,22.7,29.88,West,267,5.0,11.0,53,0.00,,,0.01,WeatherTracker,2013-01-27 06:54:00,
2013-01-26 22:59:00,39.4,22.3,29.88,WSW,256,2.0,11.0,50,0.00,,,0.01,WeatherTracker,2013-01-27 06:59:00,
2013-01-26 23:04:00,39.9,22.3,29.88,ENE,61,12.0,12.0,49,0.00,,,0.01,WeatherTracker,2013-01-27 07:04:00,
2013-01-26 23:09:00,40.6,22.0,29.88,SSE,151,9.0,15.0,47,0.00,,,0.01,WeatherTracker,2013-01-27 07:09:00,
2013-01-26 23:14:00,41.0,24.3,29.87,SE,130,6.0,21.0,51,0.00,,,0.01,WeatherTracker,2013-01-27 07:14:00,
2013-01-26 23:19:00,41.5,21.8,29.87,SE,130,13.0,21.0,45,0.00,,,0.01,WeatherTracker,2013-01-27 07:19:00,
2013-01-26 23:24:00,41.0,23.3,29.87,SSE,155,6.0,27.0,49,0.00,,,0.01,WeatherTracker,2013-01-27 07:24:00,
2013-01-26 23:29:00,40.8,23.6,29.88,SE,129,27.0,34.0,50,0.00,,,0.01,WeatherTracker,2013-01-27 07:29:00,
2013-01-26 23:34:00,39.3,24.9,29.88,SSE,156,9.0,34.0,56,0.00,,,0.01,WeatherTracker,2013-01-27 07:34:00,
2013-01-26 23:39:00,39.2,24.0,29.87,SSE,163,9.0,34.0,54,0.00,,,0.01,WeatherTracker,2013-01-27 07:39:00,
2013-01-26 23:44:00,38.9,23.2,29.86,SE,128,12.0,34.0,53,0.00,,,0.01,WeatherTracker,2013-01-27 07:44:00,
2013-01-26 23:49:00,39.1,23.0,29.86,SE,143,6.0,22.0,52,0.00,,,0.01,WeatherTracker,2013-01-27 07:49:00,
2013-01-26 23:54:00,39.8,21.7,29.86,SE,143,14.0,15.0,48,0.00,,,0.01,WeatherTracker,2013-01-27 07:54:00,
2013-01-26 23:59:00,40.5,21.9,29.86,SE,146,7.0,25.0,47,0.00,,,0.01,WeatherTracker,2013-01-27 07:59:00,